Location: Unspecified
(0.0000°N, 0.0000°E)
Time: 04:46:22
(UTC+00:00)

deb Midas IV - Pass Details

Date: 15 October 2024
Orbit: 3517 x 3765 km, 95.9° (Epoch: 09 November)

Event Time Altitude Azimuth Distance (km) Brightness Sun altitude
Rises 04:42:50 0° 190° (S) 7,577 ? -15.5°
Reaches altitude 10° 04:47:42 10° 198° (SSW) 6,553 ? -14.3°
Maximum altitude 05:02:50 35° 257° (WSW) 4,809 ? -10.6°
Drops below altitude 10° 05:18:33 10° 317° (NW) 6,687 ? -6.7°
Sets 05:23:49 0° 327° (NNW) 7,750 ? -5.4°
